10U8 ZHLY-ZHLY

Flight info

Callsign 10U8
Flight time 0h 7m
Altitude 2000
Route LOCAL
Aircraft DA42/L-SBDGRY/S

Departure

Time 2026-05-07 14:20
Airport Luoyang Beijiao Airport (ZHLY)

Arrival

Time 2026-05-07 14:27
Airport Luoyang Beijiao Airport (ZHLY)
Time Latitude Longitude Altitude Speed Heading
2026-05-07 14:06 34.73769 112.38098 857 ft 0 kts 169°
2026-05-07 14:13 34.73764 112.38099 857 ft 3 kts 170°
2026-05-07 14:13 34.73746 112.38062 854 ft 8 kts 255°
2026-05-07 14:14 34.73731 112.37987 856 ft 10 kts 257°
2026-05-07 14:14 34.73729 112.37911 856 ft 8 kts 341°
2026-05-07 14:14 34.73773 112.37877 855 ft 9 kts 264°
2026-05-07 14:14 34.73755 112.37796 849 ft 11 kts 254°
2026-05-07 14:15 34.73737 112.37696 854 ft 13 kts 260°
2026-05-07 14:15 34.73711 112.37581 851 ft 12 kts 259°
2026-05-07 14:15 34.73738 112.37508 848 ft 11 kts 351°
2026-05-07 14:15 34.73764 112.37502 853 ft 0 kts 346°
2026-05-07 14:17 34.73807 112.37490 853 ft 13 kts 349°
2026-05-07 14:17 34.73864 112.37513 853 ft 8 kts 61°
2026-05-07 14:18 34.73874 112.37548 849 ft 0 kts 77°
2026-05-07 14:19 34.73901 112.37674 854 ft 41 kts 74°
2026-05-07 14:19 34.74014 112.38215 889 ft 84 kts 76°
2026-05-07 14:19 34.74141 112.38926 1210 ft 87 kts 77°
2026-05-07 14:20 34.74275 112.39665 1557 ft 91 kts 80°
2026-05-07 14:20 34.74400 112.40400 1968 ft 86 kts 82°
2026-05-07 14:20 34.74585 112.41105 2124 ft 95 kts 61°
2026-05-07 14:20 34.75150 112.41582 2085 ft 107 kts 25°
2026-05-07 14:21 34.75939 112.41555 2047 ft 121 kts 353°
2026-05-07 14:21 34.76624 112.40937 2061 ft 133 kts 295°
2026-05-07 14:21 34.76501 112.39820 2005 ft 137 kts 250°
2026-05-07 14:21 34.76207 112.38723 1979 ft 136 kts 254°
2026-05-07 14:22 34.75977 112.37662 2046 ft 129 kts 254°
2026-05-07 14:22 34.75759 112.36595 1982 ft 126 kts 255°
2026-05-07 14:22 34.75577 112.35624 1961 ft 108 kts 251°
2026-05-07 14:22 34.75328 112.34805 1928 ft 101 kts 252°
2026-05-07 14:23 34.75102 112.33967 1932 ft 109 kts 258°
2026-05-07 14:23 34.74963 112.33066 2020 ft 112 kts 262°
2026-05-07 14:23 34.74749 112.32128 2045 ft 117 kts 256°
2026-05-07 14:23 34.74540 112.31149 2017 ft 119 kts 258°
2026-05-07 14:24 34.74217 112.30237 1998 ft 117 kts 222°
2026-05-07 14:24 34.73521 112.29952 2002 ft 100 kts 162°
2026-05-07 14:24 34.72882 112.30251 1906 ft 96 kts 140°
2026-05-07 14:24 34.72633 112.30868 1882 ft 77 kts 83°
2026-05-07 14:25 34.72698 112.31542 1758 ft 83 kts 86°
2026-05-07 14:25 34.72810 112.32226 1626 ft 83 kts 78°
2026-05-07 14:25 34.72908 112.32876 1542 ft 77 kts 78°
2026-05-07 14:25 34.72995 112.33511 1378 ft 79 kts 76°
2026-05-07 14:26 34.73133 112.34153 1355 ft 80 kts 69°
2026-05-07 14:26 34.73269 112.34813 1350 ft 83 kts 70°
2026-05-07 14:26 34.73437 112.35487 1234 ft 84 kts 68°
2026-05-07 14:26 34.73580 112.36153 1126 ft 81 kts 70°
2026-05-07 14:27 34.73723 112.36823 1012 ft 82 kts 71°
2026-05-07 14:27 34.73849 112.37436 885 ft 68 kts 72°
2026-05-07 14:27 34.73957 112.37917 852 ft 46 kts 76°
2026-05-07 14:27 34.74057 112.38441 925 ft 78 kts 77°
2026-05-07 14:28 34.74186 112.39119 1221 ft 87 kts 76°
2026-05-07 14:28 34.74337 112.39849 1576 ft 87 kts 80°
2026-05-07 14:28 34.74501 112.40565 1906 ft 92 kts 66°
2026-05-07 14:28 34.74988 112.41109 2041 ft 103 kts 30°
2026-05-07 14:29 34.75717 112.41076 2028 ft 116 kts 345°
2026-05-07 14:29 34.76248 112.40330 1993 ft 121 kts 291°
2026-05-07 14:29 34.76248 112.39314 1983 ft 122 kts 260°
2026-05-07 14:29 34.76092 112.38296 1971 ft 120 kts 257°
2026-05-07 14:30 34.75902 112.37322 1966 ft 114 kts 243°
2026-05-07 14:30 34.75589 112.36447 1972 ft 111 kts 241°
2026-05-07 14:30 34.75365 112.35591 2074 ft 105 kts 249°
2026-05-07 14:30 34.75128 112.34713 2019 ft 110 kts 254°
2026-05-07 14:31 34.74875 112.33844 1977 ft 110 kts 242°
2026-05-07 14:31 34.74332 112.33333 1899 ft 99 kts 179°
2026-05-07 14:31 34.73677 112.33480 1664 ft 93 kts 159°
2026-05-07 14:31 34.73310 112.34009 1436 ft 88 kts 94°
2026-05-07 14:32 34.73360 112.34759 1357 ft 93 kts 82°
2026-05-07 14:32 34.73452 112.35432 1207 ft 76 kts 78°
2026-05-07 14:32 34.73572 112.36053 1150 ft 79 kts 76°
2026-05-07 14:32 34.73701 112.36700 1032 ft 74 kts 77°
2026-05-07 14:33 34.73823 112.37295 915 ft 73 kts 76°
2026-05-07 14:33 34.73932 112.37831 844 ft 50 kts 76°
2026-05-07 14:33 34.73996 112.38134 854 ft 27 kts 76°
2026-05-07 14:33 34.74032 112.38310 859 ft 17 kts 77°
2026-05-07 14:34 34.74011 112.38417 856 ft 12 kts 143°
2026-05-07 14:34 34.73931 112.38453 853 ft 12 kts 171°
2026-05-07 14:34 34.73881 112.38401 854 ft 10 kts 250°
2026-05-07 14:34 34.73861 112.38306 859 ft 13 kts 254°
2026-05-07 14:35 34.73838 112.38195 855 ft 14 kts 258°
2026-05-07 14:35 34.73793 112.38130 858 ft 11 kts 162°
2026-05-07 14:35 34.73752 112.38152 857 ft 0 kts 161°